UTA453 UUWW-USTR

Flight info

Callsign UTA453
Flight time 2h 16m
Altitude 35000
Route N0460F350 OLMUN T629 IPSIL T830 LAMGU N604 OGSIN P983 GINPA
Aircraft B738/M-SDE2E3FGHIRWXY/LB1

Departure

Time 2026-04-25 19:47
Airport Vnukovo International Airport (UUWW)

Arrival

Time 2026-04-25 22:03
Airport Roshchino International Airport (USTR)
Time Latitude Longitude Altitude Speed Heading
2026-04-25 19:00 55.60358 37.28581 693 ft 0 kts 339°
2026-04-25 19:33 55.60354 37.28583 684 ft 3 kts 339°
2026-04-25 19:34 55.60329 37.28601 693 ft 4 kts 328°
2026-04-25 19:34 55.60314 37.28631 686 ft 4 kts 284°
2026-04-25 19:34 55.60314 37.28673 687 ft 4 kts 235°
2026-04-25 19:34 55.60333 37.28700 693 ft 4 kts 200°
2026-04-25 19:35 55.60352 37.28711 693 ft 0 kts 195°
2026-04-25 19:38 55.60345 37.28708 693 ft 2 kts 195°
2026-04-25 19:38 55.60317 37.28694 686 ft 6 kts 195°
2026-04-25 19:39 55.60267 37.28670 693 ft 8 kts 196°
2026-04-25 19:39 55.60214 37.28638 691 ft 8 kts 205°
2026-04-25 19:39 55.60171 37.28578 692 ft 8 kts 224°
2026-04-25 19:39 55.60140 37.28520 687 ft 0 kts 225°
2026-04-25 19:40 55.60140 37.28519 693 ft 1 kts 225°
2026-04-25 19:40 55.60108 37.28462 688 ft 13 kts 228°
2026-04-25 19:40 55.60084 37.28333 693 ft 9 kts 262°
2026-04-25 19:41 55.60035 37.28282 686 ft 9 kts 179°
2026-04-25 19:41 55.59972 37.28288 692 ft 9 kts 174°
2026-04-25 19:41 55.59923 37.28352 689 ft 9 kts 125°
2026-04-25 19:41 55.59893 37.28403 688 ft 9 kts 142°
2026-04-25 19:42 55.59888 37.28583 689 ft 16 kts 68°
2026-04-25 19:42 55.59929 37.28770 688 ft 16 kts 69°
2026-04-25 19:42 55.59930 37.28936 690 ft 10 kts 130°
2026-04-25 19:42 55.59921 37.28945 693 ft 0 kts 158°
2026-04-25 19:45 55.59901 37.28958 689 ft 9 kts 161°
2026-04-25 19:45 55.59809 37.28984 687 ft 16 kts 206°
2026-04-25 19:46 55.59752 37.28801 686 ft 24 kts 247°
2026-04-25 19:46 55.59598 37.28120 690 ft 95 kts 248°
2026-04-25 19:46 55.59266 37.26693 690 ft 153 kts 245°
2026-04-25 19:46 55.58836 37.24809 1198 ft 165 kts 245°
2026-04-25 19:47 55.58512 37.22950 2252 ft 151 kts 249°
2026-04-25 19:47 55.57885 37.21532 2869 ft 158 kts 214°
2026-04-25 19:47 55.57031 37.20050 3127 ft 186 kts 235°
2026-04-25 19:47 55.56257 37.18061 3400 ft 204 kts 233°
2026-04-25 19:48 55.55410 37.15980 3932 ft 213 kts 233°
2026-04-25 19:48 55.54819 37.13626 4783 ft 212 kts 263°
2026-04-25 19:48 55.54813 37.11012 5541 ft 214 kts 267°
2026-04-25 19:48 55.54816 37.08392 6230 ft 217 kts 268°
2026-04-25 19:49 55.55082 37.05726 6791 ft 224 kts 292°
2026-04-25 19:49 55.55341 37.04947 6915 ft 228 kts 302°
2026-04-25 19:49 55.57724 37.02570 7011 ft 260 kts 348°
2026-04-25 19:49 55.59557 37.02429 6998 ft 266 kts 355°
2026-04-25 19:50 55.63054 37.04177 6993 ft 274 kts 42°
2026-04-25 19:50 55.64101 37.07041 7031 ft 290 kts 72°
2026-04-25 19:50 55.64353 37.10622 7022 ft 296 kts 93°
2026-04-25 19:51 55.64316 37.14306 7001 ft 300 kts 93°
2026-04-25 19:51 55.64291 37.17987 6991 ft 298 kts 92°
2026-04-25 19:51 55.64083 37.21603 6973 ft 294 kts 108°
2026-04-25 19:51 55.63451 37.25076 7382 ft 299 kts 112°
2026-04-25 19:52 55.62761 37.28561 7940 ft 301 kts 112°
2026-04-25 19:52 55.62090 37.32067 7986 ft 300 kts 111°
2026-04-25 19:52 55.61437 37.35572 7993 ft 301 kts 111°
2026-04-25 19:52 55.60787 37.39106 7994 ft 301 kts 111°
2026-04-25 19:53 55.60140 37.42628 7992 ft 301 kts 111°
2026-04-25 19:53 55.59494 37.46142 8006 ft 301 kts 111°
2026-04-25 19:53 55.58848 37.49659 8005 ft 301 kts 111°
2026-04-25 19:53 55.58199 37.53177 7987 ft 301 kts 111°
2026-04-25 19:54 55.57550 37.56692 7985 ft 300 kts 111°
2026-04-25 19:54 55.57057 37.60233 7984 ft 304 kts 94°
2026-04-25 19:54 55.57446 37.63884 8076 ft 307 kts 65°
2026-04-25 19:54 55.58126 37.66136 8450 ft 310 kts 57°
2026-04-25 19:55 55.59610 37.70519 9000 ft 311 kts 57°
2026-04-25 19:55 55.60607 37.73466 8992 ft 308 kts 57°
2026-04-25 19:55 55.61694 37.76727 9014 ft 308 kts 57°
2026-04-25 19:55 55.62778 37.80015 9024 ft 310 kts 58°
2026-04-25 19:56 55.63863 37.83320 9018 ft 311 kts 58°
2026-04-25 19:56 55.64672 37.86863 8997 ft 314 kts 83°
2026-04-25 19:56 55.64573 37.90703 9308 ft 314 kts 103°
2026-04-25 19:56 55.64094 37.94481 10068 ft 314 kts 105°
2026-04-25 19:57 55.63586 37.98241 10858 ft 314 kts 105°
2026-04-25 19:57 55.63080 38.02021 11579 ft 318 kts 105°
2026-04-25 19:57 55.62580 38.05856 12308 ft 322 kts 105°
2026-04-25 19:57 55.62080 38.09726 12628 ft 325 kts 104°
2026-04-25 19:58 55.61577 38.13638 12627 ft 326 kts 104°
2026-04-25 19:58 55.61077 38.17549 12648 ft 330 kts 104°
2026-04-25 19:58 55.60924 38.21709 12777 ft 352 kts 80°
2026-04-25 19:58 55.61849 38.25807 13029 ft 370 kts 56°
2026-04-25 19:59 55.63299 38.29644 13511 ft 379 kts 54°
2026-04-25 19:59 55.64788 38.33536 14080 ft 384 kts 54°
2026-04-25 19:59 55.66273 38.37439 14741 ft 388 kts 54°
2026-04-25 19:59 55.67769 38.41456 15397 ft 392 kts 55°
2026-04-25 20:00 55.69261 38.45539 16005 ft 398 kts 55°
2026-04-25 20:00 55.69770 38.46940 16215 ft 400 kts 55°
2026-04-25 20:00 55.72285 38.53906 17311 ft 407 kts 55°
2026-04-25 20:00 55.73809 38.58158 17951 ft 412 kts 56°
2026-04-25 20:01 55.76903 38.66792 19083 ft 418 kts 54°
2026-04-25 20:01 55.78453 38.71213 19683 ft 421 kts 55°
2026-04-25 20:01 55.80019 38.75605 20156 ft 423 kts 55°
2026-04-25 20:02 55.81600 38.80065 20549 ft 429 kts 54°
2026-04-25 20:02 55.83214 38.84555 21156 ft 429 kts 54°
2026-04-25 20:02 55.84800 38.89078 21578 ft 433 kts 54°
2026-04-25 20:02 55.86420 38.93634 21960 ft 438 kts 54°
2026-04-25 20:03 55.88057 38.98255 22482 ft 442 kts 54°
2026-04-25 20:03 55.89669 39.02845 23084 ft 444 kts 55°
2026-04-25 20:03 55.91305 39.07525 23550 ft 447 kts 55°
2026-04-25 20:03 55.92951 39.12240 23953 ft 450 kts 55°
2026-04-25 20:04 55.94612 39.17005 24346 ft 454 kts 55°
2026-04-25 20:04 55.96283 39.21813 24749 ft 456 kts 55°
2026-04-25 20:04 55.97954 39.26640 25173 ft 459 kts 55°
2026-04-25 20:04 55.99634 39.31497 25571 ft 461 kts 54°
2026-04-25 20:05 56.01325 39.36395 25950 ft 464 kts 54°
2026-04-25 20:05 56.03023 39.41316 26335 ft 467 kts 54°
2026-04-25 20:05 56.04731 39.46274 26742 ft 469 kts 55°
2026-04-25 20:05 56.06445 39.51259 27129 ft 472 kts 55°
2026-04-25 20:06 56.08087 39.56380 27508 ft 476 kts 61°
2026-04-25 20:06 56.09375 39.61880 27838 ft 481 kts 66°
2026-04-25 20:06 56.10550 39.67523 28159 ft 485 kts 68°
2026-04-25 20:06 56.11697 39.73216 28479 ft 487 kts 68°
2026-04-25 20:07 56.12846 39.78946 28817 ft 490 kts 68°
2026-04-25 20:07 56.14010 39.84707 29138 ft 492 kts 67°
2026-04-25 20:07 56.15189 39.90484 29441 ft 495 kts 67°
2026-04-25 20:07 56.16381 39.96281 29733 ft 497 kts 67°
2026-04-25 20:08 56.17585 40.02111 29991 ft 499 kts 67°
2026-04-25 20:08 56.18793 40.07952 30323 ft 499 kts 68°
2026-04-25 20:08 56.19994 40.13782 30719 ft 497 kts 68°
2026-04-25 20:08 56.21186 40.19584 31076 ft 496 kts 68°
2026-04-25 20:09 56.22380 40.25412 31385 ft 496 kts 68°
2026-04-25 20:09 56.23567 40.31226 31673 ft 497 kts 68°
2026-04-25 20:09 56.24755 40.37057 32008 ft 496 kts 68°
2026-04-25 20:09 56.25938 40.42892 32370 ft 495 kts 68°
2026-04-25 20:10 56.26716 40.46738 32574 ft 495 kts 68°
2026-04-25 20:10 56.28283 40.54503 33037 ft 493 kts 68°
2026-04-25 20:10 56.29451 40.60306 33373 ft 493 kts 69°
2026-04-25 20:10 56.30611 40.66089 33702 ft 491 kts 69°
2026-04-25 20:11 56.31768 40.71883 33961 ft 491 kts 69°
2026-04-25 20:11 56.32908 40.77602 34192 ft 491 kts 69°
2026-04-25 20:11 56.34061 40.83399 34414 ft 491 kts 69°
2026-04-25 20:11 56.35209 40.89187 34652 ft 491 kts 69°
2026-04-25 20:12 56.37512 41.00855 34699 ft 496 kts 69°
2026-04-25 20:12 56.39049 41.08680 34689 ft 494 kts 69°
2026-04-25 20:13 56.42065 41.24133 34711 ft 488 kts 69°
2026-04-25 20:13 56.44306 41.35685 34696 ft 486 kts 70°
2026-04-25 20:14 56.46528 41.47225 34696 ft 485 kts 70°
2026-04-25 20:14 56.48361 41.56794 34700 ft 485 kts 70°
2026-04-25 20:15 56.50557 41.68315 34681 ft 485 kts 70°
2026-04-25 20:15 56.52748 41.79875 34719 ft 485 kts 70°
2026-04-25 20:16 56.54927 41.91450 34701 ft 486 kts 70°
2026-04-25 20:16 56.57100 42.03061 34699 ft 487 kts 70°
2026-04-25 20:17 56.59269 42.14723 34697 ft 488 kts 70°
2026-04-25 20:17 56.61428 42.26404 34699 ft 488 kts 70°
2026-04-25 20:18 56.63577 42.38100 34720 ft 488 kts 70°
2026-04-25 20:18 56.65716 42.49815 34706 ft 488 kts 71°
2026-04-25 20:19 56.67834 42.61491 34702 ft 488 kts 71°
2026-04-25 20:19 56.69949 42.73228 34702 ft 487 kts 71°
2026-04-25 20:20 56.72050 42.84957 34705 ft 487 kts 71°
2026-04-25 20:20 56.74139 42.96692 34712 ft 486 kts 71°
2026-04-25 20:21 56.76212 43.08417 34708 ft 486 kts 71°
2026-04-25 20:21 56.78274 43.20157 34711 ft 485 kts 71°
2026-04-25 20:22 56.79977 43.29905 34706 ft 485 kts 71°
2026-04-25 20:22 56.82340 43.43511 34712 ft 484 kts 71°
2026-04-25 20:23 56.84369 43.55282 34710 ft 485 kts 71°
2026-04-25 20:23 56.86379 43.67028 34711 ft 485 kts 71°
2026-04-25 20:24 56.88383 43.78811 34712 ft 485 kts 71°
2026-04-25 20:24 56.90375 43.90598 34712 ft 485 kts 72°
2026-04-25 20:25 56.92358 44.02405 34713 ft 485 kts 72°
2026-04-25 20:25 56.94327 44.14221 34714 ft 485 kts 72°
2026-04-25 20:26 56.96291 44.26077 34720 ft 486 kts 72°
2026-04-25 20:26 56.98227 44.37852 34717 ft 486 kts 72°
2026-04-25 20:27 57.00169 44.49731 34715 ft 486 kts 72°
2026-04-25 20:27 57.02099 44.61630 34715 ft 486 kts 72°
2026-04-25 20:28 57.04015 44.73524 34726 ft 486 kts 72°
2026-04-25 20:28 57.05922 44.85442 34735 ft 486 kts 72°
2026-04-25 20:29 57.07819 44.97373 34722 ft 486 kts 72°
2026-04-25 20:29 57.09701 45.09306 34729 ft 485 kts 72°
2026-04-25 20:30 57.11572 45.21252 34728 ft 485 kts 73°
2026-04-25 20:30 57.13432 45.33195 34724 ft 485 kts 73°
2026-04-25 20:31 57.15279 45.45145 34744 ft 485 kts 73°
2026-04-25 20:31 57.17101 45.57028 34738 ft 485 kts 73°
2026-04-25 20:32 57.18925 45.69006 34727 ft 485 kts 73°
2026-04-25 20:32 57.20738 45.81005 34730 ft 485 kts 73°
2026-04-25 20:33 57.22540 45.93011 34728 ft 485 kts 73°
2026-04-25 20:33 57.24027 46.02984 34728 ft 485 kts 73°
2026-04-25 20:34 57.26105 46.17029 34733 ft 485 kts 73°
2026-04-25 20:34 57.27871 46.29058 34728 ft 485 kts 73°
2026-04-25 20:35 57.29625 46.41099 34728 ft 485 kts 73°
2026-04-25 20:35 57.31366 46.53139 34729 ft 484 kts 73°
2026-04-25 20:36 57.33095 46.65176 34727 ft 484 kts 73°
2026-04-25 20:36 57.34787 46.77136 34719 ft 483 kts 75°
2026-04-25 20:37 57.35855 46.89440 34723 ft 484 kts 82°
2026-04-25 20:37 57.36619 47.01821 34719 ft 484 kts 82°
2026-04-25 20:38 57.37385 47.14202 34718 ft 484 kts 82°
2026-04-25 20:38 57.38193 47.26590 34717 ft 484 kts 82°
2026-04-25 20:39 57.39013 47.38976 34734 ft 484 kts 82°
2026-04-25 20:39 57.39689 47.49275 34719 ft 484 kts 82°
2026-04-25 20:40 57.40621 47.63763 34709 ft 484 kts 82°
2026-04-25 20:40 57.41407 47.76181 34711 ft 484 kts 82°
2026-04-25 20:41 57.42178 47.88592 34704 ft 484 kts 82°
2026-04-25 20:41 57.42934 48.00937 34708 ft 484 kts 82°
2026-04-25 20:42 57.43682 48.13359 34727 ft 485 kts 82°
2026-04-25 20:42 57.44418 48.25802 34715 ft 485 kts 82°
2026-04-25 20:43 57.45143 48.38261 34709 ft 485 kts 83°
2026-04-25 20:43 57.45854 48.50734 34705 ft 485 kts 83°
2026-04-25 20:44 57.46551 48.63174 34707 ft 484 kts 83°
2026-04-25 20:44 57.47238 48.75625 34708 ft 484 kts 83°
2026-04-25 20:45 57.47914 48.88080 34714 ft 485 kts 83°
2026-04-25 20:45 57.48578 49.00547 34705 ft 485 kts 83°
2026-04-25 20:46 57.49228 49.13014 34696 ft 484 kts 83°
2026-04-25 20:46 57.49860 49.25401 34693 ft 484 kts 83°
2026-04-25 20:47 57.50483 49.37848 34692 ft 483 kts 83°
2026-04-25 20:47 57.51092 49.50288 34703 ft 483 kts 83°
2026-04-25 20:48 57.51691 49.62735 34694 ft 483 kts 84°
2026-04-25 20:48 57.52277 49.75176 34684 ft 482 kts 84°
2026-04-25 20:49 57.52850 49.87604 34687 ft 482 kts 84°
2026-04-25 20:49 57.53412 50.00041 34679 ft 481 kts 84°
2026-04-25 20:50 57.53959 50.12438 34672 ft 481 kts 84°
2026-04-25 20:50 57.54494 50.24843 34683 ft 480 kts 84°
2026-04-25 20:51 57.55017 50.37246 34679 ft 480 kts 84°
2026-04-25 20:51 57.55526 50.49639 34667 ft 481 kts 84°
2026-04-25 20:52 57.55942 50.59965 34664 ft 481 kts 84°
2026-04-25 20:52 57.56508 50.74407 34670 ft 481 kts 84°
2026-04-25 20:53 57.56982 50.86833 34667 ft 481 kts 84°
2026-04-25 20:53 57.57447 50.99282 34673 ft 482 kts 85°
2026-04-25 20:54 57.57897 51.11747 34663 ft 482 kts 85°
2026-04-25 20:54 57.58336 51.24231 34657 ft 483 kts 85°
2026-04-25 20:55 57.58763 51.36722 34654 ft 483 kts 85°
2026-04-25 20:55 57.59178 51.49207 34652 ft 482 kts 85°
2026-04-25 20:56 57.59580 51.61701 34656 ft 483 kts 85°
2026-04-25 20:56 57.59970 51.74192 34660 ft 483 kts 85°
2026-04-25 20:57 57.60346 51.86621 34643 ft 483 kts 85°
2026-04-25 20:57 57.60711 51.99122 34643 ft 482 kts 85°
2026-04-25 20:58 57.61062 52.11621 34643 ft 482 kts 85°
2026-04-25 20:58 57.61402 52.24120 34637 ft 483 kts 85°
2026-04-25 20:59 57.61733 52.36642 34637 ft 483 kts 86°
2026-04-25 20:59 57.62050 52.49177 34642 ft 484 kts 86°
2026-04-25 21:00 57.62253 52.57480 34637 ft 484 kts 86°
2026-04-25 21:01 57.62790 52.80588 34624 ft 485 kts 86°
2026-04-25 21:01 57.63018 52.91056 34619 ft 486 kts 86°
2026-04-25 21:02 57.63323 53.05693 34618 ft 486 kts 86°
2026-04-25 21:02 57.63533 53.16247 34634 ft 486 kts 87°
2026-04-25 21:03 57.63773 53.28855 34622 ft 486 kts 87°
2026-04-25 21:03 57.63997 53.41375 34609 ft 485 kts 87°
2026-04-25 21:04 57.64210 53.53951 34612 ft 484 kts 87°
2026-04-25 21:04 57.64411 53.66497 34604 ft 484 kts 87°
2026-04-25 21:05 57.64599 53.79051 34599 ft 483 kts 87°
2026-04-25 21:05 57.64777 53.91592 34609 ft 482 kts 88°
2026-04-25 21:06 57.64939 54.04115 34598 ft 482 kts 88°
2026-04-25 21:06 57.65088 54.16638 34587 ft 482 kts 88°
2026-04-25 21:07 57.65225 54.29148 34585 ft 482 kts 88°
2026-04-25 21:07 57.65352 54.41668 34595 ft 482 kts 88°
2026-04-25 21:08 57.65465 54.54094 34586 ft 482 kts 89°
2026-04-25 21:08 57.65563 54.66621 34601 ft 482 kts 89°
2026-04-25 21:09 57.65694 54.85430 34585 ft 483 kts 89°
2026-04-25 21:09 57.65766 54.97999 34580 ft 483 kts 89°
2026-04-25 21:10 57.65823 55.10554 34578 ft 483 kts 90°
2026-04-25 21:10 57.65868 55.23095 34571 ft 483 kts 90°
2026-04-25 21:11 57.65901 55.35639 34579 ft 483 kts 90°
2026-04-25 21:11 57.65921 55.48177 34584 ft 483 kts 91°
2026-04-25 21:12 57.65930 55.60734 34575 ft 483 kts 91°
2026-04-25 21:12 57.65927 55.71174 34568 ft 483 kts 91°
2026-04-25 21:13 57.65908 55.85831 34566 ft 483 kts 91°
2026-04-25 21:13 57.65880 55.98365 34565 ft 483 kts 91°
2026-04-25 21:14 57.65838 56.10885 34572 ft 482 kts 92°
2026-04-25 21:14 57.65781 56.23403 34576 ft 482 kts 92°
2026-04-25 21:15 57.65715 56.35916 34578 ft 482 kts 92°
2026-04-25 21:15 57.65638 56.48425 34580 ft 481 kts 92°
2026-04-25 21:16 57.65548 56.60917 34585 ft 481 kts 92°
2026-04-25 21:16 57.65446 56.73401 34589 ft 481 kts 92°
2026-04-25 21:17 57.65332 56.85827 34593 ft 481 kts 92°
2026-04-25 21:17 57.65203 56.98321 34592 ft 481 kts 92°
2026-04-25 21:18 57.65063 57.10821 34597 ft 482 kts 93°
2026-04-25 21:18 57.64910 57.23336 34598 ft 482 kts 93°
2026-04-25 21:19 57.64746 57.35859 34587 ft 482 kts 93°
2026-04-25 21:19 57.64569 57.48379 34606 ft 482 kts 93°
2026-04-25 21:20 57.64411 57.58770 34612 ft 482 kts 93°
2026-04-25 21:20 57.64176 57.73401 34616 ft 483 kts 94°
2026-04-25 21:21 57.63961 57.85931 34623 ft 483 kts 94°
2026-04-25 21:21 57.63734 57.98469 34622 ft 484 kts 94°
2026-04-25 21:22 57.63495 58.11011 34623 ft 484 kts 94°
2026-04-25 21:22 57.63244 58.23485 34628 ft 484 kts 94°
2026-04-25 21:23 57.62980 58.36030 34625 ft 484 kts 94°
2026-04-25 21:23 57.62703 58.48564 34618 ft 483 kts 95°
2026-04-25 21:24 57.62414 58.61072 34622 ft 482 kts 95°
2026-04-25 21:24 57.62116 58.73566 34633 ft 482 kts 95°
2026-04-25 21:25 57.61803 58.86036 34627 ft 481 kts 95°
2026-04-25 21:25 57.61476 58.98494 34631 ft 481 kts 95°
2026-04-25 21:26 57.61140 59.10945 34632 ft 480 kts 95°
2026-04-25 21:26 57.60793 59.23367 34631 ft 480 kts 96°
2026-04-25 21:27 57.60431 59.35799 34628 ft 479 kts 96°
2026-04-25 21:27 57.60059 59.48212 34604 ft 479 kts 96°
2026-04-25 21:28 57.59676 59.60589 34626 ft 479 kts 96°
2026-04-25 21:28 57.59280 59.72979 34614 ft 479 kts 96°
2026-04-25 21:29 57.58870 59.85365 34621 ft 479 kts 97°
2026-04-25 21:29 57.58453 59.97673 34629 ft 479 kts 97°
2026-04-25 21:30 57.58021 60.10077 34621 ft 480 kts 97°
2026-04-25 21:30 57.57648 60.20461 34634 ft 480 kts 97°
2026-04-25 21:31 57.57115 60.34887 34628 ft 481 kts 97°
2026-04-25 21:31 57.56646 60.47303 34615 ft 481 kts 98°
2026-04-25 21:32 57.56164 60.59726 34614 ft 480 kts 98°
2026-04-25 21:32 57.55670 60.72119 34633 ft 480 kts 98°
2026-04-25 21:33 57.55163 60.84516 34629 ft 480 kts 98°
2026-04-25 21:33 57.54644 60.96908 34632 ft 480 kts 98°
2026-04-25 21:34 57.54114 61.09306 34633 ft 480 kts 99°
2026-04-25 21:34 57.53571 61.21697 34624 ft 480 kts 99°
2026-04-25 21:35 57.53016 61.34075 34636 ft 480 kts 99°
2026-04-25 21:35 57.52447 61.46461 34642 ft 480 kts 99°
2026-04-25 21:36 57.51869 61.58840 34628 ft 480 kts 99°
2026-04-25 21:36 57.51570 61.65083 34098 ft 486 kts 100°
2026-04-25 21:36 57.51268 61.71344 33499 ft 485 kts 100°
2026-04-25 21:37 57.50966 61.77587 32852 ft 483 kts 101°
2026-04-25 21:37 57.50766 61.81696 32541 ft 480 kts 101°
2026-04-25 21:37 57.50368 61.89843 31885 ft 473 kts 101°
2026-04-25 21:37 57.50067 61.95909 31404 ft 468 kts 102°
2026-04-25 21:38 57.49766 62.01902 30941 ft 463 kts 102°
2026-04-25 21:38 57.49464 62.07836 30495 ft 459 kts 102°
2026-04-25 21:38 57.49162 62.13706 30051 ft 455 kts 103°
2026-04-25 21:38 57.48859 62.19532 29576 ft 451 kts 103°
2026-04-25 21:39 57.48555 62.25306 29034 ft 447 kts 103°
2026-04-25 21:39 57.48253 62.31018 28567 ft 441 kts 103°
2026-04-25 21:39 57.47956 62.36658 28122 ft 435 kts 103°
2026-04-25 21:39 57.47657 62.42222 27653 ft 430 kts 104°
2026-04-25 21:40 57.47362 62.47652 27203 ft 426 kts 104°
2026-04-25 21:40 57.47062 62.53115 26751 ft 421 kts 104°
2026-04-25 21:40 57.46763 62.58507 26302 ft 418 kts 104°
2026-04-25 21:40 57.46465 62.63843 25834 ft 413 kts 105°
2026-04-25 21:41 57.46169 62.69130 25410 ft 408 kts 106°
2026-04-25 21:41 57.45873 62.74350 24995 ft 404 kts 106°
2026-04-25 21:41 57.45577 62.79523 24581 ft 402 kts 107°
2026-04-25 21:41 57.45285 62.84677 24163 ft 399 kts 107°
2026-04-25 21:42 57.44992 62.89773 23750 ft 396 kts 107°
2026-04-25 21:42 57.44697 62.94844 23344 ft 394 kts 107°
2026-04-25 21:42 57.44402 62.99892 22855 ft 393 kts 107°
2026-04-25 21:42 57.44105 63.04918 22390 ft 390 kts 107°
2026-04-25 21:43 57.43809 63.09909 21989 ft 386 kts 107°
2026-04-25 21:43 57.43517 63.14775 21579 ft 383 kts 107°
2026-04-25 21:43 57.43220 63.19730 21179 ft 379 kts 107°
2026-04-25 21:43 57.42931 63.24516 20771 ft 377 kts 106°
2026-04-25 21:44 57.42634 63.29390 20374 ft 374 kts 106°
2026-04-25 21:44 57.42345 63.34099 19977 ft 371 kts 106°
2026-04-25 21:44 57.41758 63.43544 19204 ft 365 kts 106°
2026-04-25 21:45 57.41466 63.48214 18819 ft 362 kts 106°
2026-04-25 21:45 57.41368 63.49776 18691 ft 362 kts 106°
2026-04-25 21:45 57.40886 63.57453 18060 ft 358 kts 106°
2026-04-25 21:45 57.40596 63.62026 17641 ft 356 kts 106°
2026-04-25 21:46 57.40306 63.66569 17227 ft 354 kts 105°
2026-04-25 21:46 57.40017 63.71069 16819 ft 350 kts 105°
2026-04-25 21:46 57.39725 63.75530 16478 ft 345 kts 107°
2026-04-25 21:46 57.39258 63.79830 16094 ft 337 kts 113°
2026-04-25 21:47 57.38667 63.84004 15720 ft 333 kts 114°
2026-04-25 21:47 57.38057 63.88142 15358 ft 332 kts 114°
2026-04-25 21:47 57.37452 63.92251 14990 ft 330 kts 113°
2026-04-25 21:47 57.36864 63.96289 14634 ft 329 kts 112°
2026-04-25 21:48 57.36265 64.00427 14263 ft 328 kts 112°
2026-04-25 21:48 57.35689 64.04434 13911 ft 326 kts 112°
2026-04-25 21:48 57.35107 64.08494 13557 ft 325 kts 111°
2026-04-25 21:48 57.34529 64.12525 13144 ft 323 kts 112°
2026-04-25 21:49 57.33954 64.16535 12775 ft 321 kts 111°
2026-04-25 21:49 57.33382 64.20513 12408 ft 319 kts 111°
2026-04-25 21:49 57.32812 64.24462 12064 ft 316 kts 111°
2026-04-25 21:49 57.32246 64.28381 11707 ft 314 kts 110°
2026-04-25 21:50 57.31681 64.32281 11359 ft 313 kts 110°
2026-04-25 21:50 57.31308 64.34853 11125 ft 312 kts 110°
2026-04-25 21:50 57.30748 64.38723 10774 ft 310 kts 110°
2026-04-25 21:50 57.30191 64.42562 10428 ft 309 kts 109°
2026-04-25 21:51 57.29633 64.46379 10145 ft 305 kts 109°
2026-04-25 21:51 57.29103 64.50102 10030 ft 296 kts 104°
2026-04-25 21:51 57.29131 64.53868 9949 ft 293 kts 80°
2026-04-25 21:51 57.29658 64.57480 9861 ft 290 kts 76°
2026-04-25 21:52 57.30241 64.61060 9741 ft 291 kts 75°
2026-04-25 21:52 57.30833 64.64629 9579 ft 291 kts 75°
2026-04-25 21:52 57.31423 64.68206 9242 ft 290 kts 75°
2026-04-25 21:52 57.32000 64.71757 8949 ft 287 kts 75°
2026-04-25 21:53 57.32570 64.75288 8666 ft 285 kts 75°
2026-04-25 21:53 57.33131 64.78797 8375 ft 284 kts 75°
2026-04-25 21:53 57.33686 64.82294 8090 ft 282 kts 75°
2026-04-25 21:53 57.34234 64.85766 7812 ft 281 kts 75°
2026-04-25 21:54 57.34778 64.89226 7532 ft 280 kts 75°
2026-04-25 21:54 57.35325 64.92693 7232 ft 280 kts 75°
2026-04-25 21:54 57.35864 64.96145 6955 ft 278 kts 75°
2026-04-25 21:54 57.36402 64.99581 6678 ft 277 kts 75°
2026-04-25 21:55 57.36939 65.03008 6412 ft 277 kts 75°
2026-04-25 21:55 57.37462 65.06374 6149 ft 275 kts 75°
2026-04-25 21:55 57.37969 65.09781 5856 ft 273 kts 81°
2026-04-25 21:55 57.37983 65.13263 5586 ft 269 kts 98°
2026-04-25 21:56 57.37772 65.16704 5316 ft 268 kts 98°
2026-04-25 21:56 57.37634 65.19019 5129 ft 267 kts 98°
2026-04-25 21:56 57.37379 65.23535 4773 ft 265 kts 97°
2026-04-25 21:56 57.37198 65.26924 4513 ft 263 kts 97°
2026-04-25 21:57 57.37022 65.30294 4237 ft 262 kts 97°
2026-04-25 21:57 57.36847 65.33654 3969 ft 261 kts 97°
2026-04-25 21:57 57.36673 65.36993 3703 ft 260 kts 97°
2026-04-25 21:57 57.36284 65.40220 3395 ft 255 kts 122°
2026-04-25 21:58 57.35161 65.42638 3245 ft 244 kts 142°
2026-04-25 21:58 57.33912 65.44695 3155 ft 237 kts 142°
2026-04-25 21:58 57.32684 65.46724 3162 ft 236 kts 142°
2026-04-25 21:58 57.31490 65.48708 3152 ft 231 kts 142°
2026-04-25 21:59 57.30256 65.50547 3092 ft 218 kts 159°
2026-04-25 21:59 57.28875 65.50886 3054 ft 191 kts 198°
2026-04-25 21:59 57.27732 65.49887 2849 ft 181 kts 221°
2026-04-25 22:00 57.26040 65.46564 2366 ft 173 kts 232°
2026-04-25 22:00 57.25253 65.44957 2146 ft 164 kts 232°
2026-04-25 22:00 57.24504 65.43442 1937 ft 155 kts 231°
2026-04-25 22:00 57.23794 65.42009 1768 ft 149 kts 231°
2026-04-25 22:01 57.23144 65.40696 1592 ft 143 kts 232°
2026-04-25 22:01 57.22494 65.39374 1415 ft 136 kts 231°
2026-04-25 22:01 57.21861 65.38098 1230 ft 136 kts 230°
2026-04-25 22:01 57.21433 65.37238 1118 ft 139 kts 229°
2026-04-25 22:02 57.20546 65.35446 864 ft 144 kts 227°
2026-04-25 22:02 57.19872 65.34073 695 ft 143 kts 226°
2026-04-25 22:02 57.19204 65.32753 508 ft 139 kts 227°
2026-04-25 22:02 57.18564 65.31443 359 ft 132 kts 227°
2026-04-25 22:03 57.18046 65.30389 373 ft 81 kts 227°
2026-04-25 22:03 57.17771 65.29832 379 ft 51 kts 228°
2026-04-25 22:03 57.17573 65.29432 385 ft 20 kts 226°
2026-04-25 22:03 57.17486 65.29342 385 ft 15 kts 157°
2026-04-25 22:04 57.17412 65.29468 386 ft 14 kts 137°
2026-04-25 22:04 57.17399 65.29619 385 ft 14 kts 48°
2026-04-25 22:04 57.17461 65.29747 384 ft 13 kts 47°
2026-04-25 22:04 57.17528 65.29879 383 ft 19 kts 48°
2026-04-25 22:05 57.17638 65.30106 381 ft 26 kts 47°
2026-04-25 22:05 57.17753 65.30336 378 ft 24 kts 47°
2026-04-25 22:05 57.17861 65.30554 375 ft 23 kts 47°
2026-04-25 22:05 57.17966 65.30765 372 ft 22 kts 47°
2026-04-25 22:06 57.18067 65.30973 368 ft 21 kts 48°
2026-04-25 22:06 57.18165 65.31173 366 ft 21 kts 47°
2026-04-25 22:06 57.18261 65.31367 363 ft 20 kts 47°
2026-04-25 22:06 57.18382 65.31612 354 ft 31 kts 48°
2026-04-25 22:07 57.18458 65.31950 340 ft 23 kts 89°
2026-04-25 22:07 57.18462 65.32143 334 ft 23 kts 88°
2026-04-25 22:07 57.18469 65.32525 327 ft 22 kts 88°
2026-04-25 22:07 57.18472 65.32800 329 ft 21 kts 89°
2026-04-25 22:08 57.18477 65.33067 332 ft 21 kts 88°
2026-04-25 22:08 57.18465 65.33322 334 ft 20 kts 123°
2026-04-25 22:08 57.18371 65.33503 336 ft 19 kts 135°
2026-04-25 22:08 57.18267 65.33696 337 ft 27 kts 134°
2026-04-25 22:09 57.18104 65.34000 336 ft 37 kts 135°
2026-04-25 22:09 57.17947 65.34293 339 ft 23 kts 135°
2026-04-25 22:09 57.17895 65.34498 337 ft 18 kts 52°
2026-04-25 22:09 57.17956 65.34611 339 ft 11 kts 44°
2026-04-25 22:10 57.17995 65.34683 340 ft 6 kts 38°
2026-04-25 22:10 57.18034 65.34725 338 ft 6 kts 29°
2026-04-25 22:10 57.18058 65.34761 336 ft 0 kts 42°
2026-04-25 22:10 57.18070 65.34783 339 ft 2 kts 44°
2026-04-25 22:11 57.18077 65.34796 339 ft 1 kts 45°
2026-04-25 22:11 57.18080 65.34800 339 ft 0 kts 45°